ACA122A CYUL-CYZF

Flight info

Callsign ACA122A
Flight time 4h 9m
Altitude 36000
Route KESKA DCT BIPKO DCT IPSAK DCT OMEGI DCT RADEN DCT YVO DCT 5030N08200W 53N086W 57N094W 60N103W DCT 62N112W DCT ZF
Aircraft A20N/M-SDE2E3FGHIRWXY/LB1

Departure

Time 2026-05-07 21:03
Airport Montreal / Pierre Elliott Trudeau International Airport (CYUL)

Arrival

Time 2026-05-08 01:12
Airport Yellowknife International Airport (CYZF)
Time Latitude Longitude Altitude Speed Heading
2026-05-07 20:35 45.45926 -73.75044 116 ft 0 kts 176°
2026-05-07 20:52 45.45928 -73.75044 116 ft 3 kts 176°
2026-05-07 20:53 45.45955 -73.75047 115 ft 4 kts 175°
2026-05-07 20:53 45.45981 -73.75051 114 ft 4 kts 168°
2026-05-07 20:53 45.45999 -73.75059 113 ft 2 kts 141°
2026-05-07 20:53 45.46008 -73.75075 114 ft 2 kts 99°
2026-05-07 20:54 45.46009 -73.75094 115 ft 2 kts 87°
2026-05-07 20:54 45.46008 -73.75110 114 ft 2 kts 85°
2026-05-07 20:54 45.46008 -73.75117 114 ft 0 kts 84°
2026-05-07 20:56 45.46008 -73.75116 114 ft 0 kts 84°
2026-05-07 20:57 45.46009 -73.75090 115 ft 6 kts 87°
2026-05-07 20:57 45.45999 -73.75000 115 ft 13 kts 109°
2026-05-07 20:57 45.45979 -73.74842 114 ft 19 kts 86°
2026-05-07 20:57 45.45951 -73.74648 113 ft 21 kts 91°
2026-05-07 20:58 45.45996 -73.74445 112 ft 22 kts 75°
2026-05-07 20:58 45.45986 -73.74258 114 ft 20 kts 52°
2026-05-07 20:58 45.46091 -73.74122 115 ft 21 kts 43°
2026-05-07 20:58 45.46201 -73.73977 113 ft 22 kts 43°
2026-05-07 20:59 45.46318 -73.73826 113 ft 24 kts 43°
2026-05-07 20:59 45.46457 -73.73642 114 ft 30 kts 43°
2026-05-07 20:59 45.46625 -73.73422 112 ft 36 kts 42°
2026-05-07 20:59 45.46817 -73.73171 115 ft 38 kts 43°
2026-05-07 21:00 45.47012 -73.72912 115 ft 38 kts 42°
2026-05-07 21:00 45.47208 -73.72658 115 ft 38 kts 43°
2026-05-07 21:00 45.47401 -73.72403 114 ft 38 kts 41°
2026-05-07 21:00 45.47593 -73.72150 116 ft 37 kts 41°
2026-05-07 21:01 45.47722 -73.71981 112 ft 37 kts 43°
2026-05-07 21:01 45.47797 -73.71787 112 ft 19 kts 123°
2026-05-07 21:01 45.47699 -73.71651 115 ft 20 kts 161°
2026-05-07 21:01 45.47638 -73.71687 115 ft 0 kts 220°
2026-05-07 21:02 45.47586 -73.71757 115 ft 38 kts 225°
2026-05-07 21:02 45.47218 -73.72247 113 ft 102 kts 221°
2026-05-07 21:02 45.46563 -73.73088 114 ft 150 kts 221°
2026-05-07 21:02 45.45730 -73.74113 487 ft 162 kts 221°
2026-05-07 21:03 45.44882 -73.75102 1330 ft 152 kts 221°
2026-05-07 21:03 45.44081 -73.76045 2005 ft 153 kts 222°
2026-05-07 21:03 45.43241 -73.77082 2355 ft 170 kts 233°
2026-05-07 21:03 45.42807 -73.78691 2703 ft 182 kts 266°
2026-05-07 21:04 45.43105 -73.80489 3046 ft 202 kts 291°
2026-05-07 21:04 45.43843 -73.82308 3395 ft 223 kts 297°
2026-05-07 21:04 45.44678 -73.84271 3877 ft 237 kts 295°
2026-05-07 21:04 45.45470 -73.86349 4650 ft 240 kts 293°
2026-05-07 21:05 45.46208 -73.88488 5454 ft 242 kts 291°
2026-05-07 21:05 45.46918 -73.90685 6234 ft 245 kts 291°
2026-05-07 21:05 45.47618 -73.92916 7018 ft 248 kts 291°
2026-05-07 21:05 45.48322 -73.95181 7809 ft 251 kts 291°
2026-05-07 21:06 45.49032 -73.97473 8615 ft 255 kts 291°
2026-05-07 21:06 45.49751 -73.99796 9419 ft 257 kts 291°
2026-05-07 21:06 45.50479 -74.02146 10086 ft 263 kts 291°
2026-05-07 21:06 45.51242 -74.04623 10337 ft 284 kts 291°
2026-05-07 21:07 45.52063 -74.07295 10558 ft 304 kts 291°
2026-05-07 21:07 45.52916 -74.10075 11131 ft 310 kts 291°
2026-05-07 21:07 45.53788 -74.12913 11856 ft 312 kts 291°
2026-05-07 21:07 45.54663 -74.15767 12542 ft 315 kts 291°
2026-05-07 21:08 45.55545 -74.18649 13256 ft 318 kts 291°
2026-05-07 21:08 45.56435 -74.21559 13936 ft 321 kts 291°
2026-05-07 21:08 45.57328 -74.24485 14588 ft 323 kts 291°
2026-05-07 21:08 45.58225 -74.27431 15196 ft 325 kts 291°
2026-05-07 21:09 45.59130 -74.30405 15814 ft 327 kts 291°
2026-05-07 21:09 45.60039 -74.33397 16427 ft 330 kts 291°
2026-05-07 21:09 45.60953 -74.36413 17024 ft 332 kts 291°
2026-05-07 21:09 45.61873 -74.39453 17615 ft 335 kts 290°
2026-05-07 21:10 45.62799 -74.42517 18202 ft 337 kts 290°
2026-05-07 21:10 45.63730 -74.45604 18731 ft 340 kts 290°
2026-05-07 21:10 45.64668 -74.48717 19235 ft 342 kts 290°
2026-05-07 21:10 45.65612 -74.51852 19727 ft 345 kts 290°
2026-05-07 21:11 45.66560 -74.55008 20225 ft 347 kts 290°
2026-05-07 21:11 45.67515 -74.58194 20704 ft 350 kts 290°
2026-05-07 21:11 45.69446 -74.64643 21643 ft 356 kts 290°
2026-05-07 21:12 45.70421 -74.67910 22097 ft 358 kts 290°
2026-05-07 21:12 45.71404 -74.71203 22533 ft 362 kts 290°
2026-05-07 21:12 45.72394 -74.74528 22995 ft 364 kts 290°
2026-05-07 21:12 45.73390 -74.77879 23412 ft 368 kts 290°
2026-05-07 21:13 45.74393 -74.81256 23783 ft 370 kts 290°
2026-05-07 21:13 45.75371 -74.84669 24169 ft 371 kts 287°
2026-05-07 21:13 45.76120 -74.88208 24519 ft 372 kts 281°
2026-05-07 21:13 45.76669 -74.91837 24866 ft 374 kts 280°
2026-05-07 21:14 45.77220 -74.95436 25223 ft 376 kts 280°
2026-05-07 21:14 45.77787 -74.99102 25579 ft 378 kts 280°
2026-05-07 21:14 45.78358 -75.02792 25920 ft 380 kts 280°
2026-05-07 21:14 45.78937 -75.06554 26260 ft 383 kts 280°
2026-05-07 21:15 45.79500 -75.10234 26587 ft 385 kts 280°
2026-05-07 21:15 45.80072 -75.13986 26914 ft 386 kts 280°
2026-05-07 21:15 45.80647 -75.17760 27221 ft 388 kts 280°
2026-05-07 21:15 45.81222 -75.21549 27532 ft 390 kts 280°
2026-05-07 21:16 45.81800 -75.25363 27836 ft 392 kts 280°
2026-05-07 21:16 45.82378 -75.29191 28125 ft 394 kts 280°
2026-05-07 21:16 45.82959 -75.33045 28408 ft 396 kts 280°
2026-05-07 21:16 45.83541 -75.36914 28686 ft 398 kts 279°
2026-05-07 21:17 45.84124 -75.40803 28956 ft 400 kts 279°
2026-05-07 21:17 45.84707 -75.44705 29222 ft 401 kts 279°
2026-05-07 21:17 45.85293 -75.48634 29463 ft 404 kts 279°
2026-05-07 21:17 45.85880 -75.52575 29733 ft 405 kts 279°
2026-05-07 21:18 45.86468 -75.56538 29962 ft 407 kts 279°
2026-05-07 21:18 45.87058 -75.60519 30167 ft 409 kts 279°
2026-05-07 21:18 45.87649 -75.64521 30366 ft 411 kts 279°
2026-05-07 21:18 45.88241 -75.68547 30564 ft 413 kts 279°
2026-05-07 21:19 45.88834 -75.72583 30763 ft 415 kts 279°
2026-05-07 21:19 45.89428 -75.76639 30975 ft 416 kts 279°
2026-05-07 21:19 45.90022 -75.80703 31240 ft 416 kts 279°
2026-05-07 21:19 45.90615 -75.84773 31497 ft 416 kts 279°
2026-05-07 21:20 45.91206 -75.88834 31768 ft 416 kts 279°
2026-05-07 21:20 45.91796 -75.92905 32020 ft 416 kts 279°
2026-05-07 21:20 45.92636 -75.96887 32268 ft 420 kts 290°
2026-05-07 21:20 45.94035 -76.00595 32473 ft 426 kts 301°
2026-05-07 21:21 45.95959 -76.03862 32675 ft 433 kts 312°
2026-05-07 21:21 45.98358 -76.06550 32873 ft 442 kts 323°
2026-05-07 21:21 46.01072 -76.08674 33064 ft 445 kts 326°
2026-05-07 21:21 46.03814 -76.10755 33273 ft 446 kts 326°
2026-05-07 21:22 46.06559 -76.12846 33478 ft 446 kts 326°
2026-05-07 21:22 46.09299 -76.14943 33682 ft 446 kts 326°
2026-05-07 21:22 46.12039 -76.17045 33862 ft 446 kts 326°
2026-05-07 21:22 46.14778 -76.19150 34022 ft 447 kts 326°
2026-05-07 21:23 46.17519 -76.21261 34166 ft 447 kts 326°
2026-05-07 21:23 46.20261 -76.23374 34321 ft 447 kts 326°
2026-05-07 21:23 46.23003 -76.25489 34457 ft 447 kts 326°
2026-05-07 21:23 46.25749 -76.27611 34597 ft 447 kts 326°
2026-05-07 21:24 46.28490 -76.29730 34744 ft 447 kts 326°
2026-05-07 21:24 46.31235 -76.31855 34879 ft 448 kts 326°
2026-05-07 21:24 46.33981 -76.33984 35017 ft 448 kts 326°
2026-05-07 21:24 46.36728 -76.36116 35146 ft 448 kts 326°
2026-05-07 21:25 46.39475 -76.38249 35265 ft 448 kts 326°
2026-05-07 21:25 46.42224 -76.40388 35405 ft 448 kts 326°
2026-05-07 21:25 46.44971 -76.42528 35511 ft 448 kts 326°
2026-05-07 21:25 46.47723 -76.44673 35627 ft 449 kts 326°
2026-05-07 21:26 46.50432 -76.46788 35729 ft 449 kts 326°
2026-05-07 21:26 46.53184 -76.48939 35843 ft 449 kts 327°
2026-05-07 21:26 46.58682 -76.53243 35854 ft 448 kts 327°
2026-05-07 21:27 46.64173 -76.57552 35852 ft 449 kts 327°
2026-05-07 21:27 46.69663 -76.61869 35854 ft 449 kts 327°
2026-05-07 21:28 46.75153 -76.66197 35854 ft 449 kts 327°
2026-05-07 21:28 46.80639 -76.70532 35851 ft 448 kts 327°
2026-05-07 21:29 46.86121 -76.74873 35858 ft 448 kts 327°
2026-05-07 21:29 46.91603 -76.79224 35857 ft 448 kts 327°
2026-05-07 21:30 46.97085 -76.83587 35861 ft 448 kts 327°
2026-05-07 21:30 47.02563 -76.87956 35859 ft 448 kts 327°
2026-05-07 21:31 47.08037 -76.92332 35866 ft 448 kts 327°
2026-05-07 21:31 47.13509 -76.96716 35868 ft 448 kts 327°
2026-05-07 21:32 47.18974 -77.01104 35865 ft 448 kts 327°
2026-05-07 21:32 47.24442 -77.05506 35860 ft 448 kts 327°
2026-05-07 21:33 47.29902 -77.09913 35860 ft 448 kts 327°
2026-05-07 21:33 47.35360 -77.14327 35861 ft 448 kts 327°
2026-05-07 21:34 47.40820 -77.18753 35861 ft 447 kts 327°
2026-05-07 21:34 47.46274 -77.23186 35857 ft 447 kts 327°
2026-05-07 21:35 47.51725 -77.27626 35854 ft 447 kts 327°
2026-05-07 21:35 47.57174 -77.32076 35852 ft 447 kts 327°
2026-05-07 21:36 47.62626 -77.36539 35854 ft 448 kts 327°
2026-05-07 21:36 47.68039 -77.40980 35850 ft 448 kts 327°
2026-05-07 21:37 47.73487 -77.45461 35852 ft 448 kts 327°
2026-05-07 21:37 47.78939 -77.49955 35845 ft 448 kts 327°
2026-05-07 21:38 47.84383 -77.54456 35838 ft 448 kts 327°
2026-05-07 21:38 47.89830 -77.58968 35819 ft 448 kts 327°
2026-05-07 21:39 47.95276 -77.63491 35808 ft 448 kts 327°
2026-05-07 21:39 48.00727 -77.68028 35804 ft 448 kts 327°
2026-05-07 21:40 48.06173 -77.72573 35804 ft 449 kts 327°
2026-05-07 21:40 48.11621 -77.77130 35809 ft 449 kts 327°
2026-05-07 21:41 48.16814 -77.82236 35811 ft 445 kts 318°
2026-05-07 21:41 48.21332 -77.88497 35819 ft 441 kts 309°
2026-05-07 21:42 48.25430 -77.95342 35829 ft 441 kts 309°
2026-05-07 21:42 48.29545 -78.02173 35839 ft 441 kts 309°
2026-05-07 21:43 48.33648 -78.09032 35854 ft 441 kts 309°
2026-05-07 21:43 48.37742 -78.15910 35852 ft 441 kts 309°
2026-05-07 21:44 48.41829 -78.22801 35853 ft 441 kts 309°
2026-05-07 21:44 48.45886 -78.29657 35852 ft 442 kts 309°
2026-05-07 21:45 48.49997 -78.36622 35850 ft 442 kts 309°
2026-05-07 21:45 48.54047 -78.43502 35846 ft 442 kts 309°
2026-05-07 21:46 48.58122 -78.50445 35850 ft 442 kts 309°
2026-05-07 21:46 48.62193 -78.57397 35847 ft 442 kts 309°
2026-05-07 21:47 48.66261 -78.64362 35846 ft 442 kts 309°
2026-05-07 21:47 48.70322 -78.71335 35843 ft 442 kts 309°
2026-05-07 21:48 48.73724 -78.77190 35840 ft 442 kts 309°
2026-05-07 21:48 48.77750 -78.84137 35836 ft 442 kts 309°
2026-05-07 21:49 48.81802 -78.91145 35832 ft 442 kts 309°
2026-05-07 21:49 48.85850 -78.98167 35834 ft 442 kts 309°
2026-05-07 21:50 48.89893 -79.05197 35824 ft 442 kts 309°
2026-05-07 21:50 48.93931 -79.12239 35830 ft 442 kts 309°
2026-05-07 21:51 48.97966 -79.19294 35821 ft 442 kts 309°
2026-05-07 21:51 49.01999 -79.26363 35821 ft 442 kts 309°
2026-05-07 21:52 49.06026 -79.33442 35819 ft 442 kts 309°
2026-05-07 21:52 49.10049 -79.40532 35824 ft 442 kts 309°
2026-05-07 21:53 49.14067 -79.47634 35822 ft 442 kts 309°
2026-05-07 21:53 49.18084 -79.54752 35824 ft 442 kts 309°
2026-05-07 21:54 49.22095 -79.61880 35816 ft 442 kts 309°
2026-05-07 21:54 49.26104 -79.69022 35818 ft 442 kts 309°
2026-05-07 21:55 49.30109 -79.76178 35815 ft 442 kts 309°
2026-05-07 21:55 49.34108 -79.83343 35811 ft 442 kts 309°
2026-05-07 21:56 49.38105 -79.90522 35814 ft 442 kts 309°
2026-05-07 21:56 49.42096 -79.97711 35814 ft 442 kts 309°
2026-05-07 21:57 49.46058 -80.04869 35820 ft 442 kts 309°
2026-05-07 21:57 49.50040 -80.12081 35809 ft 442 kts 309°
2026-05-07 21:58 49.54019 -80.19307 35808 ft 443 kts 308°
2026-05-07 21:58 49.57992 -80.26544 35809 ft 442 kts 308°
2026-05-07 21:59 49.61962 -80.33795 35807 ft 442 kts 308°
2026-05-07 21:59 49.65926 -80.41054 35819 ft 442 kts 308°
2026-05-07 22:00 49.69885 -80.48324 35827 ft 442 kts 308°
2026-05-07 22:00 49.73842 -80.55611 35813 ft 442 kts 308°
2026-05-07 22:01 49.77791 -80.62906 35817 ft 442 kts 308°
2026-05-07 22:01 49.81740 -80.70218 35822 ft 443 kts 308°
2026-05-07 22:02 49.85682 -80.77539 35819 ft 442 kts 308°
2026-05-07 22:02 49.89621 -80.84875 35825 ft 443 kts 308°
2026-05-07 22:03 49.93554 -80.92219 35822 ft 443 kts 308°
2026-05-07 22:03 49.97485 -80.99582 35821 ft 443 kts 308°
2026-05-07 22:04 50.01409 -81.06953 35820 ft 443 kts 308°
2026-05-07 22:04 50.05331 -81.14340 35818 ft 443 kts 308°
2026-05-07 22:05 50.09251 -81.21742 35814 ft 443 kts 308°
2026-05-07 22:05 50.13166 -81.29159 35813 ft 443 kts 308°
2026-05-07 22:06 50.17078 -81.36590 35809 ft 444 kts 308°
2026-05-07 22:06 50.20990 -81.44043 35808 ft 444 kts 308°
2026-05-07 22:07 50.24898 -81.51508 35805 ft 444 kts 308°
2026-05-07 22:07 50.28802 -81.58988 35807 ft 444 kts 308°
2026-05-07 22:08 50.32702 -81.66483 35808 ft 444 kts 308°
2026-05-07 22:08 50.36572 -81.73940 35809 ft 444 kts 308°
2026-05-07 22:09 50.40465 -81.81463 35804 ft 444 kts 308°
2026-05-07 22:09 50.44356 -81.88995 35803 ft 444 kts 308°
2026-05-07 22:10 50.48242 -81.96535 35804 ft 444 kts 308°
2026-05-07 22:10 50.52437 -82.03660 35800 ft 445 kts 315°
2026-05-07 22:11 50.56964 -82.10323 35797 ft 446 kts 315°
2026-05-07 22:11 50.61487 -82.17004 35792 ft 446 kts 315°
2026-05-07 22:12 50.66000 -82.23701 35794 ft 446 kts 315°
2026-05-07 22:12 50.70505 -82.30416 35794 ft 446 kts 315°
2026-05-07 22:13 50.75008 -82.37149 35791 ft 446 kts 315°
2026-05-07 22:13 50.79503 -82.43892 35790 ft 446 kts 315°
2026-05-07 22:14 50.83997 -82.50650 35790 ft 446 kts 315°
2026-05-07 22:14 50.88489 -82.57424 35792 ft 446 kts 315°
2026-05-07 22:15 50.92975 -82.64209 35789 ft 446 kts 315°
2026-05-07 22:15 50.97459 -82.71010 35788 ft 446 kts 315°
2026-05-07 22:16 51.01942 -82.77827 35785 ft 446 kts 315°
2026-05-07 22:16 51.06419 -82.84655 35789 ft 446 kts 315°
2026-05-07 22:17 51.10895 -82.91502 35788 ft 447 kts 315°
2026-05-07 22:17 51.15372 -82.98370 35790 ft 447 kts 315°
2026-05-07 22:18 51.22087 -83.08706 35792 ft 447 kts 315°
2026-05-07 22:19 51.26559 -83.15614 35788 ft 447 kts 315°
2026-05-07 22:19 51.30999 -83.22492 35787 ft 448 kts 314°
2026-05-07 22:20 51.35467 -83.29434 35786 ft 448 kts 314°
2026-05-07 22:20 51.39931 -83.36389 35807 ft 448 kts 314°
2026-05-07 22:21 51.44391 -83.43359 35786 ft 448 kts 314°
2026-05-07 22:21 51.48847 -83.50342 35788 ft 448 kts 314°
2026-05-07 22:22 51.53301 -83.57340 35785 ft 448 kts 314°
2026-05-07 22:22 51.57749 -83.64350 35789 ft 448 kts 314°
2026-05-07 22:23 51.62192 -83.71375 35785 ft 448 kts 314°
2026-05-07 22:23 51.66633 -83.78415 35786 ft 448 kts 314°
2026-05-07 22:24 51.71067 -83.85465 35799 ft 448 kts 314°
2026-05-07 22:24 51.75498 -83.92531 35785 ft 448 kts 314°
2026-05-07 22:25 51.79923 -83.99608 35781 ft 448 kts 314°
2026-05-07 22:25 51.84345 -84.06700 35781 ft 448 kts 314°
2026-05-07 22:26 51.88765 -84.13810 35784 ft 448 kts 314°
2026-05-07 22:26 51.93178 -84.20930 35792 ft 448 kts 314°
2026-05-07 22:27 51.97591 -84.28070 35784 ft 448 kts 314°
2026-05-07 22:27 52.01970 -84.35177 35787 ft 448 kts 314°
2026-05-07 22:28 52.06374 -84.42345 35783 ft 448 kts 314°
2026-05-07 22:28 52.10773 -84.49526 35790 ft 448 kts 314°
2026-05-07 22:29 52.15169 -84.56723 35794 ft 448 kts 314°
2026-05-07 22:29 52.19554 -84.63925 35780 ft 448 kts 314°
2026-05-07 22:30 52.23937 -84.71145 35783 ft 448 kts 314°
2026-05-07 22:30 52.28315 -84.78377 35784 ft 448 kts 314°
2026-05-07 22:31 52.32684 -84.85618 35780 ft 447 kts 314°
2026-05-07 22:31 52.37051 -84.92875 35797 ft 447 kts 313°
2026-05-07 22:32 52.41410 -85.00141 35780 ft 447 kts 313°
2026-05-07 22:32 52.45763 -85.07420 35800 ft 446 kts 314°
2026-05-07 22:33 52.50092 -85.14678 35789 ft 445 kts 314°
2026-05-07 22:33 52.54423 -85.21964 35789 ft 445 kts 314°
2026-05-07 22:34 52.58743 -85.29251 35791 ft 445 kts 314°
2026-05-07 22:34 52.63058 -85.36555 35793 ft 445 kts 314°
2026-05-07 22:35 52.66645 -85.42640 35798 ft 445 kts 314°
2026-05-07 22:35 52.70952 -85.49970 35794 ft 445 kts 314°
2026-05-07 22:36 52.75252 -85.57309 35797 ft 445 kts 314°
2026-05-07 22:36 52.79549 -85.64665 35798 ft 445 kts 314°
2026-05-07 22:37 52.83842 -85.72036 35798 ft 445 kts 314°
2026-05-07 22:37 52.88128 -85.79419 35797 ft 445 kts 313°
2026-05-07 22:38 52.92408 -85.86808 35798 ft 445 kts 313°
2026-05-07 22:38 52.96687 -85.94212 35800 ft 444 kts 313°
2026-05-07 22:39 53.00959 -86.01620 35799 ft 444 kts 314°
2026-05-07 22:39 53.05252 -86.09006 35796 ft 444 kts 314°
2026-05-07 22:40 53.09531 -86.16322 35796 ft 444 kts 314°
2026-05-07 22:40 53.13835 -86.23693 35799 ft 444 kts 314°
2026-05-07 22:41 53.18133 -86.31076 35798 ft 444 kts 314°
2026-05-07 22:41 53.22422 -86.38469 35793 ft 444 kts 314°
2026-05-07 22:42 53.26709 -86.45885 35794 ft 443 kts 314°
2026-05-07 22:42 53.30984 -86.53313 35796 ft 443 kts 314°
2026-05-07 22:43 53.35253 -86.60754 35798 ft 443 kts 314°
2026-05-07 22:43 53.39518 -86.68211 35793 ft 443 kts 314°
2026-05-07 22:44 53.43775 -86.75678 35793 ft 443 kts 314°
2026-05-07 22:44 53.48026 -86.83157 35792 ft 443 kts 314°
2026-05-07 22:45 53.52274 -86.90652 35789 ft 443 kts 314°
2026-05-07 22:45 53.56512 -86.98156 35788 ft 443 kts 314°
2026-05-07 22:46 53.60747 -87.05675 35786 ft 442 kts 314°
2026-05-07 22:46 53.64977 -87.13210 35785 ft 442 kts 314°
2026-05-07 22:47 53.69199 -87.20754 35778 ft 442 kts 314°
2026-05-07 22:47 53.73412 -87.28306 35780 ft 442 kts 313°
2026-05-07 22:48 53.77623 -87.35877 35777 ft 442 kts 313°
2026-05-07 22:48 53.81827 -87.43462 35773 ft 442 kts 313°
2026-05-07 22:49 53.85995 -87.51003 35771 ft 442 kts 313°
2026-05-07 22:49 53.90186 -87.58611 35765 ft 441 kts 313°
2026-05-07 22:50 53.94371 -87.66231 35768 ft 441 kts 313°
2026-05-07 22:50 53.98552 -87.73867 35761 ft 441 kts 313°
2026-05-07 22:51 54.02722 -87.81508 35762 ft 441 kts 313°
2026-05-07 22:51 54.06890 -87.89170 35758 ft 441 kts 313°
2026-05-07 22:52 54.11050 -87.96841 35755 ft 441 kts 313°
2026-05-07 22:52 54.15203 -88.04524 35753 ft 441 kts 313°
2026-05-07 22:53 54.19350 -88.12222 35750 ft 440 kts 313°
2026-05-07 22:53 54.23492 -88.19933 35751 ft 440 kts 313°
2026-05-07 22:54 54.27630 -88.27660 35749 ft 440 kts 313°
2026-05-07 22:54 54.31759 -88.35399 35749 ft 440 kts 313°
2026-05-07 22:55 54.35886 -88.43156 35748 ft 440 kts 313°
2026-05-07 22:55 54.40004 -88.50921 35745 ft 440 kts 313°
2026-05-07 22:56 54.44120 -88.58709 35743 ft 440 kts 313°
2026-05-07 22:56 54.48227 -88.66505 35739 ft 440 kts 313°
2026-05-07 22:57 54.52304 -88.74268 35738 ft 440 kts 313°
2026-05-07 22:57 54.56405 -88.82101 35742 ft 440 kts 313°
2026-05-07 22:58 54.60494 -88.89937 35742 ft 440 kts 313°
2026-05-07 22:58 54.64578 -88.97791 35741 ft 439 kts 313°
2026-05-07 22:59 54.68660 -89.05664 35736 ft 439 kts 313°
2026-05-07 22:59 54.72730 -89.13543 35737 ft 439 kts 313°
2026-05-07 23:00 54.76799 -89.21441 35735 ft 439 kts 313°
2026-05-07 23:00 54.80854 -89.29342 35742 ft 439 kts 313°
2026-05-07 23:01 54.84905 -89.37259 35745 ft 439 kts 312°
2026-05-07 23:01 54.88950 -89.45190 35741 ft 439 kts 312°
2026-05-07 23:02 54.92986 -89.53130 35737 ft 438 kts 312°
2026-05-07 23:02 54.97017 -89.61086 35736 ft 438 kts 312°
2026-05-07 23:03 55.01019 -89.69011 35738 ft 438 kts 312°
2026-05-07 23:03 55.05038 -89.76996 35741 ft 438 kts 312°
2026-05-07 23:04 55.09049 -89.84991 35743 ft 438 kts 312°
2026-05-07 23:04 55.13058 -89.93009 35742 ft 438 kts 312°
2026-05-07 23:05 55.17063 -90.01046 35746 ft 438 kts 312°
2026-05-07 23:05 55.21062 -90.09096 35742 ft 438 kts 312°
2026-05-07 23:06 55.25056 -90.17166 35741 ft 438 kts 312°
2026-05-07 23:06 55.29050 -90.25261 35745 ft 439 kts 312°
2026-05-07 23:07 55.33036 -90.33367 35746 ft 439 kts 312°
2026-05-07 23:07 55.37016 -90.41488 35743 ft 439 kts 312°
2026-05-07 23:08 55.40995 -90.49634 35744 ft 439 kts 312°
2026-05-07 23:08 55.44964 -90.57789 35746 ft 439 kts 312°
2026-05-07 23:09 55.48903 -90.65908 35740 ft 439 kts 312°
2026-05-07 23:09 55.52864 -90.74099 35740 ft 439 kts 311°
2026-05-07 23:10 55.56817 -90.82304 35741 ft 439 kts 311°
2026-05-07 23:10 55.60763 -90.90521 35742 ft 438 kts 311°
2026-05-07 23:11 55.64707 -90.98763 35738 ft 438 kts 311°
2026-05-07 23:11 55.68641 -91.07010 35739 ft 438 kts 311°
2026-05-07 23:12 55.72570 -91.15276 35741 ft 438 kts 311°
2026-05-07 23:12 55.76498 -91.23567 35736 ft 438 kts 311°
2026-05-07 23:13 55.80415 -91.31864 35736 ft 438 kts 311°
2026-05-07 23:13 55.84327 -91.40179 35742 ft 439 kts 311°
2026-05-07 23:14 55.88241 -91.48529 35741 ft 439 kts 311°
2026-05-07 23:14 55.92145 -91.56884 35737 ft 438 kts 311°
2026-05-07 23:15 55.96039 -91.65248 35737 ft 438 kts 311°
2026-05-07 23:15 55.99926 -91.73625 35738 ft 438 kts 311°
2026-05-07 23:16 56.03807 -91.82019 35736 ft 438 kts 311°
2026-05-07 23:16 56.07683 -91.90430 35742 ft 438 kts 311°
2026-05-07 23:17 56.11525 -91.98797 35735 ft 438 kts 311°
2026-05-07 23:17 56.15383 -92.07230 35736 ft 437 kts 311°
2026-05-07 23:18 56.19231 -92.15668 35731 ft 437 kts 311°
2026-05-07 23:18 56.23076 -92.24129 35731 ft 437 kts 311°
2026-05-07 23:19 56.26911 -92.32600 35733 ft 437 kts 311°
2026-05-07 23:19 56.30740 -92.41084 35731 ft 437 kts 311°
2026-05-07 23:20 56.34562 -92.49587 35734 ft 437 kts 311°
2026-05-07 23:20 56.38381 -92.58108 35739 ft 437 kts 311°
2026-05-07 23:21 56.42194 -92.66649 35740 ft 437 kts 311°
2026-05-07 23:21 56.46004 -92.75213 35741 ft 437 kts 310°
2026-05-07 23:22 56.49812 -92.83804 35758 ft 437 kts 310°
2026-05-07 23:22 56.53618 -92.92421 35757 ft 438 kts 310°
2026-05-07 23:23 56.57419 -93.01056 35753 ft 438 kts 310°
2026-05-07 23:23 56.60572 -93.08245 35752 ft 438 kts 310°
2026-05-07 23:24 56.64362 -93.16911 35752 ft 438 kts 310°
2026-05-07 23:24 56.68148 -93.25600 35760 ft 439 kts 310°
2026-05-07 23:25 56.71933 -93.34321 35755 ft 439 kts 310°
2026-05-07 23:25 56.75708 -93.43047 35759 ft 438 kts 310°
2026-05-07 23:26 56.79475 -93.51789 35761 ft 438 kts 310°
2026-05-07 23:26 56.83212 -93.60491 35761 ft 438 kts 310°
2026-05-07 23:27 56.88846 -93.73648 35765 ft 438 kts 310°
2026-05-07 23:27 56.92593 -93.82431 35758 ft 438 kts 310°
2026-05-07 23:28 56.96334 -93.91231 35760 ft 438 kts 310°
2026-05-07 23:28 57.00049 -94.00082 35760 ft 438 kts 308°
2026-05-07 23:29 57.03590 -94.09183 35763 ft 438 kts 308°
2026-05-07 23:29 57.07203 -94.18186 35760 ft 438 kts 308°
2026-05-07 23:30 57.10813 -94.27212 35764 ft 438 kts 308°
2026-05-07 23:30 57.14407 -94.36271 35762 ft 438 kts 308°
2026-05-07 23:31 57.17994 -94.45359 35764 ft 438 kts 308°
2026-05-07 23:31 57.21569 -94.54462 35770 ft 439 kts 308°
2026-05-07 23:32 57.25144 -94.63609 35775 ft 439 kts 308°
2026-05-07 23:32 57.28709 -94.72771 35772 ft 439 kts 308°
2026-05-07 23:33 57.32273 -94.81964 35778 ft 439 kts 308°
2026-05-07 23:33 57.35828 -94.91166 35777 ft 440 kts 307°
2026-05-07 23:34 57.39380 -95.00400 35782 ft 440 kts 307°
2026-05-07 23:34 57.42927 -95.09652 35783 ft 440 kts 307°
2026-05-07 23:35 57.46465 -95.18919 35786 ft 440 kts 307°
2026-05-07 23:35 57.50000 -95.28212 35788 ft 440 kts 307°
2026-05-07 23:36 57.53530 -95.37529 35791 ft 440 kts 307°
2026-05-07 23:36 57.57050 -95.46857 35794 ft 441 kts 307°
2026-05-07 23:37 57.60567 -95.56210 35794 ft 441 kts 307°
2026-05-07 23:37 57.64054 -95.65523 35800 ft 441 kts 307°
2026-05-07 23:38 57.67560 -95.74919 35795 ft 441 kts 307°
2026-05-07 23:38 57.71060 -95.84339 35804 ft 441 kts 307°
2026-05-07 23:39 57.74552 -95.93774 35802 ft 441 kts 307°
2026-05-07 23:39 57.78038 -96.03229 35804 ft 441 kts 306°
2026-05-07 23:40 57.81517 -96.12704 35801 ft 441 kts 306°
2026-05-07 23:40 57.84983 -96.22182 35800 ft 440 kts 306°
2026-05-07 23:41 57.88440 -96.31672 35805 ft 440 kts 306°
2026-05-07 23:41 57.91893 -96.41187 35806 ft 440 kts 306°
2026-05-07 23:42 57.95334 -96.50708 35810 ft 440 kts 306°
2026-05-07 23:42 57.98744 -96.60183 35810 ft 440 kts 306°
2026-05-07 23:43 58.02173 -96.69746 35816 ft 441 kts 306°
2026-05-07 23:43 58.05601 -96.79344 35823 ft 440 kts 306°
2026-05-07 23:44 58.09016 -96.88947 35821 ft 440 kts 306°
2026-05-07 23:44 58.12426 -96.98573 35824 ft 440 kts 306°
2026-05-07 23:45 58.15824 -97.08204 35829 ft 440 kts 306°
2026-05-07 23:45 58.19216 -97.17859 35828 ft 440 kts 306°
2026-05-07 23:46 58.22603 -97.27537 35836 ft 440 kts 306°
2026-05-07 23:46 58.25979 -97.37224 35834 ft 440 kts 306°
2026-05-07 23:47 58.29348 -97.46929 35836 ft 440 kts 306°
2026-05-07 23:47 58.32710 -97.56654 35844 ft 440 kts 306°
2026-05-07 23:48 58.36059 -97.66383 35845 ft 440 kts 306°
2026-05-07 23:48 58.39403 -97.76135 35845 ft 439 kts 305°
2026-05-07 23:49 58.42739 -97.85906 35849 ft 439 kts 305°
2026-05-07 23:49 58.46063 -97.95678 35849 ft 439 kts 305°
2026-05-07 23:50 58.49361 -98.05418 35848 ft 439 kts 305°
2026-05-07 23:50 58.52671 -98.15231 35836 ft 439 kts 305°
2026-05-07 23:51 58.55975 -98.25068 35821 ft 439 kts 305°
2026-05-07 23:51 58.59267 -98.34910 35816 ft 439 kts 305°
2026-05-07 23:52 58.62550 -98.44768 35803 ft 438 kts 305°
2026-05-07 23:52 58.65826 -98.54644 35801 ft 438 kts 305°
2026-05-07 23:53 58.69093 -98.64535 35803 ft 438 kts 305°
2026-05-07 23:53 58.72352 -98.74443 35810 ft 438 kts 305°
2026-05-07 23:54 58.75602 -98.84365 35824 ft 438 kts 305°
2026-05-07 23:54 58.78845 -98.94309 35835 ft 438 kts 305°
2026-05-07 23:55 58.82079 -99.04266 35850 ft 438 kts 305°
2026-05-07 23:55 58.85302 -99.14232 35864 ft 437 kts 304°
2026-05-07 23:56 58.88514 -99.24206 35869 ft 437 kts 304°
2026-05-07 23:56 58.91700 -99.34142 35872 ft 437 kts 304°
2026-05-07 23:57 58.94896 -99.44152 35871 ft 437 kts 304°
2026-05-07 23:57 58.98083 -99.54175 35873 ft 437 kts 304°
2026-05-07 23:58 59.01265 -99.64225 35879 ft 437 kts 304°
2026-05-07 23:58 59.04438 -99.74291 35879 ft 437 kts 304°
2026-05-07 23:59 59.07601 -99.84368 35877 ft 437 kts 304°
2026-05-07 23:59 59.10755 -99.94461 35882 ft 436 kts 304°
2026-05-08 00:00 59.13900 -100.04568 35888 ft 436 kts 304°
2026-05-08 00:00 59.17034 -100.14684 35891 ft 436 kts 304°
2026-05-08 00:01 59.20163 -100.24825 35890 ft 436 kts 304°
2026-05-08 00:01 59.23277 -100.34964 35896 ft 436 kts 304°
2026-05-08 00:02 59.26386 -100.45133 35896 ft 436 kts 304°
2026-05-08 00:02 59.29485 -100.55309 35897 ft 435 kts 304°
2026-05-08 00:03 59.32554 -100.65434 35897 ft 435 kts 303°
2026-05-08 00:03 59.35632 -100.75631 35900 ft 435 kts 303°
2026-05-08 00:04 59.38704 -100.85858 35901 ft 435 kts 303°
2026-05-08 00:04 59.41763 -100.96081 35901 ft 434 kts 303°
2026-05-08 00:05 59.44811 -101.06316 35904 ft 434 kts 303°
2026-05-08 00:05 59.47853 -101.16574 35903 ft 434 kts 303°
2026-05-08 00:06 59.50884 -101.26842 35909 ft 434 kts 303°
2026-05-08 00:06 59.53910 -101.37136 35911 ft 434 kts 303°
2026-05-08 00:07 59.56924 -101.47439 35914 ft 433 kts 303°
2026-05-08 00:07 59.59909 -101.57688 35919 ft 433 kts 303°
2026-05-08 00:08 59.62904 -101.68015 35915 ft 433 kts 303°
2026-05-08 00:08 59.65888 -101.78352 35916 ft 433 kts 303°
2026-05-08 00:09 59.68863 -101.88704 35922 ft 433 kts 303°
2026-05-08 00:09 59.71828 -101.99068 35921 ft 432 kts 302°
2026-05-08 00:10 59.74784 -102.09447 35923 ft 432 kts 302°
2026-05-08 00:10 59.77731 -102.19844 35923 ft 432 kts 302°
2026-05-08 00:11 59.80667 -102.30249 35925 ft 432 kts 302°
2026-05-08 00:11 59.83599 -102.40684 35927 ft 432 kts 302°
2026-05-08 00:12 59.86518 -102.51124 35929 ft 432 kts 302°
2026-05-08 00:12 59.88938 -102.59808 35927 ft 431 kts 302°
2026-05-08 00:13 59.91845 -102.70264 35929 ft 431 kts 302°
2026-05-08 00:13 59.94749 -102.80745 35932 ft 432 kts 302°
2026-05-08 00:14 59.98111 -102.92940 35934 ft 431 kts 302°
2026-05-08 00:14 60.00505 -103.01781 35935 ft 432 kts 301°
2026-05-08 00:15 60.03285 -103.12422 35940 ft 431 kts 302°
2026-05-08 00:15 60.06165 -103.22959 35951 ft 432 kts 302°
2026-05-08 00:16 60.09012 -103.33466 35953 ft 432 kts 301°
2026-05-08 00:16 60.11855 -103.44062 35959 ft 432 kts 301°
2026-05-08 00:17 60.14691 -103.54706 35955 ft 432 kts 301°
2026-05-08 00:17 60.17515 -103.65372 35964 ft 432 kts 301°
2026-05-08 00:18 60.20328 -103.76056 35963 ft 432 kts 301°
2026-05-08 00:18 60.23131 -103.86756 35976 ft 433 kts 301°
2026-05-08 00:19 60.25930 -103.97489 35982 ft 433 kts 300°
2026-05-08 00:19 60.28719 -104.08237 35987 ft 433 kts 300°
2026-05-08 00:20 60.31504 -104.19022 35991 ft 434 kts 300°
2026-05-08 00:20 60.34282 -104.29827 35998 ft 434 kts 300°
2026-05-08 00:21 60.37051 -104.40655 36002 ft 434 kts 300°
2026-05-08 00:21 60.39812 -104.51503 36002 ft 434 kts 300°
2026-05-08 00:22 60.42566 -104.62374 36006 ft 434 kts 300°
2026-05-08 00:22 60.45294 -104.73199 36010 ft 434 kts 300°
2026-05-08 00:23 60.48030 -104.84109 36009 ft 434 kts 299°
2026-05-08 00:23 60.50759 -104.95043 36008 ft 434 kts 299°
2026-05-08 00:24 60.53482 -105.06009 36008 ft 435 kts 299°
2026-05-08 00:24 60.56195 -105.16987 36006 ft 435 kts 299°
2026-05-08 00:25 60.58898 -105.27981 36006 ft 435 kts 299°
2026-05-08 00:25 60.61594 -105.39003 36012 ft 435 kts 298°
2026-05-08 00:26 60.64281 -105.50042 36011 ft 435 kts 298°
2026-05-08 00:26 60.66960 -105.61102 36013 ft 435 kts 298°
2026-05-08 00:27 60.69631 -105.72191 36014 ft 435 kts 298°
2026-05-08 00:27 60.72291 -105.83286 36013 ft 435 kts 298°
2026-05-08 00:28 60.74944 -105.94411 36017 ft 435 kts 298°
2026-05-08 00:28 60.77591 -106.05566 36021 ft 436 kts 298°
2026-05-08 00:29 60.80226 -106.16729 36023 ft 436 kts 297°
2026-05-08 00:29 60.82838 -106.27848 36025 ft 436 kts 297°
2026-05-08 00:30 60.85456 -106.39055 36027 ft 436 kts 297°
2026-05-08 00:30 60.88054 -106.50308 36024 ft 436 kts 297°
2026-05-08 00:31 60.90759 -106.61442 36030 ft 436 kts 298°
2026-05-08 00:31 60.93495 -106.72560 36026 ft 436 kts 299°
2026-05-08 00:32 60.96346 -106.83576 36030 ft 435 kts 300°
2026-05-08 00:32 60.99216 -106.94561 36025 ft 436 kts 300°
2026-05-08 00:33 61.02075 -107.05573 36026 ft 436 kts 300°
2026-05-08 00:33 61.04919 -107.16606 36028 ft 436 kts 299°
2026-05-08 00:34 61.07753 -107.27665 36025 ft 436 kts 299°
2026-05-08 00:34 61.10580 -107.38750 36022 ft 436 kts 299°
2026-05-08 00:35 61.13383 -107.49797 36024 ft 436 kts 299°
2026-05-08 00:35 61.16193 -107.60929 36018 ft 436 kts 299°
2026-05-08 00:36 61.18997 -107.72090 36019 ft 436 kts 298°
2026-05-08 00:36 61.21789 -107.83263 36017 ft 437 kts 298°
2026-05-08 00:37 61.24576 -107.94470 36015 ft 437 kts 298°
2026-05-08 00:38 61.28741 -108.11329 36022 ft 437 kts 298°
2026-05-08 00:38 61.31507 -108.22594 36019 ft 437 kts 298°
2026-05-08 00:39 61.34265 -108.33888 36016 ft 438 kts 298°
2026-05-08 00:39 61.37017 -108.45213 36008 ft 438 kts 298°
2026-05-08 00:40 61.39761 -108.56564 36011 ft 438 kts 297°
2026-05-08 00:40 61.42480 -108.67869 36013 ft 439 kts 297°
2026-05-08 00:41 61.45209 -108.79280 36017 ft 439 kts 297°
2026-05-08 00:41 61.47931 -108.90719 36023 ft 439 kts 297°
2026-05-08 00:42 61.50647 -109.02188 36022 ft 440 kts 297°
2026-05-08 00:42 61.53354 -109.13688 36027 ft 440 kts 297°
2026-05-08 00:43 61.56052 -109.25208 36022 ft 440 kts 297°
2026-05-08 00:43 61.58743 -109.36758 36022 ft 440 kts 296°
2026-05-08 00:44 61.61424 -109.48328 36027 ft 440 kts 296°
2026-05-08 00:44 61.64092 -109.59906 36020 ft 440 kts 296°
2026-05-08 00:45 61.66754 -109.71518 36015 ft 440 kts 296°
2026-05-08 00:45 61.69402 -109.83134 36031 ft 440 kts 296°
2026-05-08 00:46 61.72039 -109.94764 36028 ft 440 kts 296°
2026-05-08 00:46 61.74651 -110.06345 36028 ft 440 kts 296°
2026-05-08 00:47 61.77271 -110.18026 36011 ft 440 kts 295°
2026-05-08 00:47 61.79881 -110.29724 36005 ft 440 kts 295°
2026-05-08 00:48 61.82482 -110.41448 36018 ft 440 kts 295°
2026-05-08 00:48 61.85078 -110.53218 35703 ft 441 kts 295°
2026-05-08 00:48 61.86369 -110.59094 35460 ft 440 kts 295°
2026-05-08 00:49 61.87656 -110.64970 35222 ft 439 kts 295°
2026-05-08 00:49 61.88941 -110.70849 34978 ft 440 kts 295°
2026-05-08 00:49 61.90225 -110.76742 34752 ft 440 kts 294°
2026-05-08 00:49 61.91505 -110.82634 34527 ft 440 kts 294°
2026-05-08 00:50 61.92784 -110.88539 34286 ft 440 kts 294°
2026-05-08 00:50 61.94061 -110.94449 34056 ft 440 kts 294°
2026-05-08 00:50 61.95335 -111.00364 33789 ft 440 kts 294°
2026-05-08 00:50 61.96607 -111.06283 33514 ft 440 kts 294°
2026-05-08 00:51 61.97876 -111.12208 33238 ft 440 kts 294°
2026-05-08 00:51 61.99145 -111.18152 32956 ft 441 kts 294°
2026-05-08 00:51 62.00414 -111.24108 32398 ft 445 kts 294°
2026-05-08 00:51 62.01693 -111.30130 31615 ft 448 kts 294°
2026-05-08 00:52 62.02971 -111.36164 31046 ft 444 kts 294°
2026-05-08 00:52 62.04230 -111.42129 30528 ft 439 kts 293°
2026-05-08 00:52 62.05476 -111.48046 29979 ft 435 kts 293°
2026-05-08 00:52 62.06707 -111.53910 29421 ft 429 kts 293°
2026-05-08 00:53 62.07918 -111.59694 28893 ft 424 kts 293°
2026-05-08 00:53 62.09109 -111.65401 28368 ft 418 kts 293°
2026-05-08 00:53 62.10282 -111.71034 27833 ft 414 kts 293°
2026-05-08 00:53 62.11443 -111.76625 27283 ft 409 kts 293°
2026-05-08 00:54 62.12590 -111.82163 26754 ft 406 kts 293°
2026-05-08 00:54 62.13707 -111.87575 26216 ft 402 kts 292°
2026-05-08 00:54 62.14831 -111.93034 25701 ft 399 kts 292°
2026-05-08 00:54 62.15944 -111.98450 25161 ft 396 kts 292°
2026-05-08 00:55 62.17047 -112.03829 24643 ft 394 kts 292°
2026-05-08 00:55 62.18141 -112.09179 24119 ft 391 kts 292°
2026-05-08 00:55 62.19228 -112.14512 23583 ft 390 kts 292°
2026-05-08 00:55 62.20306 -112.19823 23021 ft 386 kts 292°
2026-05-08 00:56 62.21370 -112.25075 22502 ft 382 kts 292°
2026-05-08 00:56 62.22423 -112.30281 21978 ft 379 kts 292°
2026-05-08 00:56 62.23463 -112.35440 21460 ft 375 kts 292°
2026-05-08 00:56 62.24492 -112.40555 20954 ft 372 kts 292°
2026-05-08 00:57 62.25511 -112.45632 20433 ft 369 kts 293°
2026-05-08 00:57 62.26523 -112.50687 19920 ft 367 kts 293°
2026-05-08 00:57 62.27523 -112.55701 19420 ft 364 kts 293°
2026-05-08 00:57 62.28516 -112.60687 18909 ft 362 kts 293°
2026-05-08 00:58 62.29503 -112.65661 18402 ft 361 kts 293°
2026-05-08 00:58 62.30484 -112.70609 17859 ft 358 kts 293°
2026-05-08 00:58 62.31453 -112.75516 17353 ft 355 kts 293°
2026-05-08 00:58 62.32411 -112.80377 16849 ft 352 kts 294°
2026-05-08 00:59 62.33349 -112.85145 16376 ft 349 kts 294°
2026-05-08 00:59 62.34291 -112.89935 15873 ft 346 kts 294°
2026-05-08 00:59 62.35223 -112.94699 15384 ft 344 kts 294°
2026-05-08 00:59 62.36148 -112.99429 14900 ft 342 kts 294°
2026-05-08 01:00 62.37067 -113.04146 14411 ft 340 kts 294°
2026-05-08 01:00 62.37978 -113.08830 13932 ft 338 kts 294°
2026-05-08 01:00 62.38884 -113.13496 13430 ft 336 kts 294°
2026-05-08 01:00 62.39779 -113.18119 12953 ft 332 kts 294°
2026-05-08 01:01 62.40663 -113.22695 12491 ft 329 kts 294°
2026-05-08 01:01 62.41540 -113.27240 12022 ft 326 kts 294°
2026-05-08 01:01 62.42407 -113.31750 11560 ft 324 kts 294°
2026-05-08 01:01 62.43263 -113.36210 11095 ft 321 kts 294°
2026-05-08 01:02 62.44112 -113.40645 10650 ft 319 kts 294°
2026-05-08 01:02 62.44670 -113.43567 10386 ft 316 kts 294°
2026-05-08 01:02 62.45489 -113.47869 10253 ft 303 kts 294°
2026-05-08 01:02 62.46273 -113.51988 10142 ft 290 kts 294°
2026-05-08 01:03 62.47027 -113.55960 9912 ft 283 kts 294°
2026-05-08 01:03 62.47765 -113.59848 9670 ft 275 kts 294°
2026-05-08 01:03 62.48488 -113.63665 9455 ft 276 kts 294°
2026-05-08 01:03 62.49219 -113.67529 9085 ft 277 kts 294°
2026-05-08 01:04 62.49947 -113.71385 8721 ft 276 kts 294°
2026-05-08 01:04 62.50668 -113.75221 8361 ft 274 kts 294°
2026-05-08 01:04 62.51382 -113.79027 7999 ft 272 kts 294°
2026-05-08 01:04 62.52093 -113.82820 7641 ft 271 kts 294°
2026-05-08 01:05 62.52799 -113.86591 7277 ft 269 kts 293°
2026-05-08 01:05 62.53497 -113.90332 6923 ft 267 kts 293°
2026-05-08 01:05 62.54191 -113.94057 6577 ft 266 kts 294°
2026-05-08 01:05 62.54881 -113.97764 6205 ft 265 kts 293°
2026-05-08 01:06 62.55565 -114.01446 5856 ft 263 kts 293°
2026-05-08 01:06 62.56244 -114.05111 5511 ft 261 kts 293°
2026-05-08 01:06 62.56919 -114.08754 5168 ft 259 kts 293°
2026-05-08 01:06 62.57587 -114.12372 4817 ft 258 kts 293°
2026-05-08 01:07 62.58250 -114.15965 4463 ft 255 kts 293°
2026-05-08 01:07 62.58907 -114.19527 4130 ft 253 kts 293°
2026-05-08 01:07 62.59558 -114.23069 3787 ft 252 kts 293°
2026-05-08 01:07 62.60208 -114.26589 3453 ft 250 kts 293°
2026-05-08 01:08 62.60840 -114.30027 3223 ft 243 kts 293°
2026-05-08 01:08 62.61448 -114.33355 3081 ft 231 kts 294°
2026-05-08 01:08 62.61989 -114.36552 2909 ft 223 kts 283°
2026-05-08 01:08 62.61936 -114.39901 2600 ft 224 kts 255°
2026-05-08 01:09 62.61260 -114.42913 2508 ft 227 kts 233°
2026-05-08 01:09 62.60081 -114.45193 2474 ft 228 kts 207°
2026-05-08 01:09 62.58615 -114.46064 2454 ft 210 kts 180°
2026-05-08 01:09 62.57219 -114.45874 2324 ft 193 kts 174°
2026-05-08 01:10 62.55940 -114.45680 2223 ft 172 kts 174°
2026-05-08 01:10 62.54815 -114.45522 2006 ft 154 kts 174°
2026-05-08 01:10 62.53750 -114.45349 1793 ft 156 kts 173°
2026-05-08 01:10 62.52667 -114.45161 1593 ft 157 kts 173°
2026-05-08 01:11 62.51587 -114.44996 1432 ft 155 kts 175°
2026-05-08 01:11 62.50517 -114.44868 1287 ft 153 kts 174°
2026-05-08 01:11 62.49448 -114.44697 1154 ft 155 kts 173°
2026-05-08 01:11 62.48381 -114.44525 955 ft 153 kts 174°
2026-05-08 01:12 62.47320 -114.44390 723 ft 153 kts 174°
2026-05-08 01:12 62.46367 -114.44241 676 ft 106 kts 177°
2026-05-08 01:12 62.45886 -114.44180 671 ft 61 kts 179°
2026-05-08 01:12 62.45508 -114.44121 667 ft 34 kts 176°
2026-05-08 01:13 62.45327 -114.44014 667 ft 17 kts 167°
2026-05-08 01:13 62.45291 -114.44072 665 ft 3 kts 283°
2026-05-08 01:13 62.45346 -114.44096 662 ft 17 kts 355°
2026-05-08 01:13 62.45512 -114.44120 666 ft 30 kts 355°
2026-05-08 01:14 62.45755 -114.44156 672 ft 39 kts 356°
2026-05-08 01:14 62.46054 -114.44201 665 ft 46 kts 356°
2026-05-08 01:14 62.46368 -114.44250 676 ft 45 kts 356°
2026-05-08 01:14 62.46669 -114.44295 679 ft 42 kts 355°
2026-05-08 01:15 62.46885 -114.44280 681 ft 16 kts 27°
2026-05-08 01:15 62.46963 -114.44073 680 ft 21 kts 57°
2026-05-08 01:15 62.47075 -114.43995 681 ft 18 kts
2026-05-08 01:15 62.47101 -114.43883 682 ft 5 kts 83°
2026-05-08 01:16 62.47101 -114.43882 682 ft 0 kts 82°